When you browse on this site, cookies collect data to enhance your experience and personalize the content and advertising you see.
Visit our Privacy Policy to learn more. By continuing to use the site, you agree to this use of cookies and data.
  • In Hungary
  • List of Countries
  • For 7 days
  • Water Temperature
  • Weather Map
  • News
  • Weather Widgets
  • user-avatar
    Login

    Hourly Weather Baklanovskaya

    Today, 21 February, Friday

    Time Temperature Precipitation Wind Pressure Humidity
    00:00 +5°C° 0 mm 5 mps 752 mmHg 80%
    01:00 +5°C° 0 mm 4 mps 752 mmHg 82%
    02:00 +4°C° 0 mm 4 mps 752 mmHg 84%
    03:00 +3°C° 0 mm 4 mps 752 mmHg 81%
    04:00 +3°C° 0 mm 4 mps 752 mmHg 83%
    05:00 +3°C° 0 mm 4 mps 752 mmHg 85%
    06:00 +1°C° 0 mm 5 mps 752 mmHg 87%
    07:00 +1°C° 0 mm 5 mps 752 mmHg 86%
    08:00 +1°C° 0 mm 5 mps 753 mmHg 85%
    09:00 +2°C° 0 mm 5 mps 753 mmHg 84%
    16:00 +5°C° 0 mm 5 mps 752 mmHg 72%
    17:00 +5°C° 0 mm 5 mps 752 mmHg 74%
    18:00 +4°C° 0 mm 4 mps 753 mmHg 76%
    19:00 +4°C° 0 mm 4 mps 753 mmHg 78%
    20:00 +3°C° 0 mm 4 mps 753 mmHg 80%
    21:00 +3°C° 0 mm 4 mps 753 mmHg 82%
    22:00 +3°C° 0 mm 4 mps 753 mmHg 84%
    23:00 +1°C° 0 mm 4 mps 753 mmHg 85%

    Tomorrow, 22 February, Saturday

    Time Temperature Precipitation Wind Pressure Humidity
    00:00 +1°C° 0 mm 4 mps 753 mmHg 86%
    01:00 +1°C° 0 mm 4 mps 753 mmHg 86%
    02:00 +1°C° 0 mm 4 mps 753 mmHg 87%
    03:00 0°C° 0 mm 4 mps 753 mmHg 87%
    04:00 0°C° 0 mm 4 mps 753 mmHg 87%
    05:00 +1°C° 0 mm 5 mps 753 mmHg 87%
    06:00 +1°C° 0 mm 5 mps 753 mmHg 86%
    07:00 +1°C° 0 mm 5 mps 754 mmHg 84%
    08:00 +2°C° 0 mm 5 mps 754 mmHg 82%
    09:00 +2°C° 0 mm 5 mps 754 mmHg 80%
    10:00 +3°C° 0 mm 6 mps 754 mmHg 77%
    11:00 +3°C° 0 mm 6 mps 754 mmHg 75%
    12:00 +4°C° 0 mm 6 mps 754 mmHg 72%
    13:00 +5°C° 0 mm 5 mps 754 mmHg 71%
    14:00 +5°C° 0 mm 5 mps 754 mmHg 69%
    15:00 +6°C° 0 mm 5 mps 754 mmHg 68%
    16:00 +5°C° 0 mm 5 mps 754 mmHg 70%
    17:00 +5°C° 0 mm 4 mps 754 mmHg 72%
    18:00 +5°C° 0 mm 4 mps 754 mmHg 73%
    19:00 +4°C° 0 mm 4 mps 755 mmHg 75%
    20:00 +4°C° 0 mm 4 mps 755 mmHg 77%
    21:00 +4°C° 0 mm 4 mps 755 mmHg 78%
    22:00 +4°C° 0 mm 3 mps 755 mmHg 79%
    23:00 +4°C° 0 mm 3 mps 755 mmHg 80%

    Day after tomorrow, 23 February, Sunday

    Time Temperature Precipitation Wind Pressure Humidity
    00:00 +5°C° 0 mm 2 mps 755 mmHg 81%
    01:00 +5°C° 0 mm 2 mps 754 mmHg 83%
    02:00 +6°C° 0 mm 1 mps 754 mmHg 84%
    03:00 +6°C° 0 mm 1 mps 754 mmHg 85%
    04:00 +6°C° 0.1 mm 1 mps 754 mmHg 88%
    05:00 +5°C° 0.1 mm 2 mps 754 mmHg 90%
    06:00 +5°C° 0.1 mm 2 mps 754 mmHg 93%
    07:00 +5°C° 0.1 mm 2 mps 754 mmHg 93%
    08:00 +4°C° 0.1 mm 3 mps 754 mmHg 93%
    09:00 +4°C° 0.1 mm 3 mps 754 mmHg 94%
    10:00 +5°C° 0 mm 4 mps 754 mmHg 89%
    11:00 +5°C° 0 mm 4 mps 754 mmHg 85%
    12:00 +5°C° 0 mm 5 mps 754 mmHg 81%
    13:00 +5°C° 0 mm 5 mps 753 mmHg 79%
    14:00 +5°C° 0 mm 5 mps 753 mmHg 78%
    15:00 +5°C° 0 mm 5 mps 753 mmHg 76%
    16:00 +5°C° 0 mm 5 mps 753 mmHg 75%
    17:00 +5°C° 0 mm 5 mps 752 mmHg 74%
    18:00 +5°C° 0 mm 5 mps 752 mmHg 73%
    19:00 +3°C° 0 mm 5 mps 752 mmHg 74%
    20:00 +3°C° 0 mm 5 mps 752 mmHg 76%
    21:00 +3°C° 0 mm 4 mps 752 mmHg 77%
    22:00 +2°C° 0 mm 5 mps 752 mmHg 77%
    23:00 +2°C° 0 mm 5 mps 751 mmHg 76%

    24 February, Monday

    Time Temperature Precipitation Wind Pressure Humidity
    00:00 +2°C° 0 mm 6 mps 751 mmHg 76%
    01:00 +2°C° 0 mm 6 mps 750 mmHg 76%
    02:00 +2°C° 0 mm 6 mps 750 mmHg 76%
    03:00 +3°C° 0 mm 7 mps 749 mmHg 76%
    04:00 +3°C° 0 mm 7 mps 749 mmHg 76%
    05:00 +2°C° 0 mm 7 mps 749 mmHg 76%
    06:00 +2°C° 0 mm 7 mps 748 mmHg 77%
    07:00 +3°C° 0 mm 7 mps 748 mmHg 75%
    08:00 +3°C° 0 mm 7 mps 748 mmHg 72%
    09:00 +4°C° 0 mm 7 mps 748 mmHg 70%
    10:00 +5°C° 0 mm 7 mps 747 mmHg 65%
    11:00 +7°C° 0 mm 6 mps 746 mmHg 61%
    12:00 +7°C° 0 mm 6 mps 745 mmHg 56%
    13:00 +8°C° 0 mm 6 mps 744 mmHg 57%
    14:00 +8°C° 0 mm 5 mps 743 mmHg 58%
    15:00 +8°C° 0 mm 5 mps 742 mmHg 59%
    16:00 +7°C° 0.1 mm 5 mps 741 mmHg 65%
    17:00 +7°C° 0.1 mm 5 mps 741 mmHg 71%
    18:00 +7°C° 0.1 mm 5 mps 740 mmHg 77%
    19:00 +7°C° 0.1 mm 5 mps 739 mmHg 76%
    20:00 +5°C° 0.1 mm 6 mps 739 mmHg 76%
    21:00 +5°C° 0.1 mm 7 mps 739 mmHg 75%
    22:00 +5°C° 0.1 mm 7 mps 738 mmHg 77%
    23:00 +4°C° 0.1 mm 6 mps 737 mmHg 79%

    25 February, Tuesday

    Time Temperature Precipitation Wind Pressure Humidity
    00:00 +4°C° 0.1 mm 6 mps 737 mmHg 82%
    01:00 +2°C° 0.2 mm 8 mps 737 mmHg 76%
    02:00 +2°C° 0.2 mm 10 mps 737 mmHg 71%
    03:00 0°C° 0.2 mm 12 mps 738 mmHg 66%
    04:00 0°C° 0 mm 13 mps 738 mmHg 72%
    05:00 -1°C° 0 mm 13 mps 739 mmHg 78%
    06:00 -2°C° 0 mm 14 mps 739 mmHg 84%
    07:00 -2°C° 0.5 mm 14 mps 741 mmHg 87%
    08:00 -4°C° 0.5 mm 14 mps 742 mmHg 91%
    09:00 -4°C° 0.5 mm 14 mps 743 mmHg 94%
    10:00 -2°C° 0.3 mm 13 mps 744 mmHg 88%
    11:00 -2°C° 0.3 mm 13 mps 745 mmHg 82%
    12:00 -1°C° 0.3 mm 12 mps 746 mmHg 77%
    13:00 -1°C° 0.1 mm 12 mps 747 mmHg 74%
    14:00 -1°C° 0.1 mm 11 mps 747 mmHg 71%
    15:00 -1°C° 0.1 mm 11 mps 748 mmHg 69%
    16:00 -2°C° 0 mm 10 mps 748 mmHg 69%
    17:00 -1°C° 0 mm 9 mps 749 mmHg 70%
    18:00 -3°C° 0 mm 9 mps 749 mmHg 71%
    19:00 -2°C° 0 mm 8 mps 750 mmHg 71%
    20:00 -2°C° 0 mm 7 mps 751 mmHg 72%
    21:00 -3°C° 0 mm 7 mps 752 mmHg 72%
    22:00 -3°C° 0 mm 7 mps 752 mmHg 73%
    23:00 -3°C° 0 mm 7 mps 752 mmHg 74%

    26 February, Wednesday

    Time Temperature Precipitation Wind Pressure Humidity
    00:00 -3°C° 0 mm 7 mps 752 mmHg 75%
    01:00 -3°C° 0 mm 7 mps 752 mmHg 75%
    02:00 -3°C° 0 mm 7 mps 753 mmHg 76%
    03:00 -3°C° 0 mm 7 mps 753 mmHg 76%
    04:00 -3°C° 0 mm 6 mps 753 mmHg 75%
    05:00 -3°C° 0 mm 6 mps 753 mmHg 74%
    06:00 -3°C° 0 mm 6 mps 753 mmHg 73%
    07:00 -2°C° 0 mm 5 mps 753 mmHg 69%
    08:00 -1°C° 0 mm 5 mps 753 mmHg 64%
    09:00 0°C° 0 mm 5 mps 753 mmHg 59%
    10:00 +1°C° 0 mm 4 mps 753 mmHg 55%
    11:00 +4°C° 0 mm 4 mps 752 mmHg 50%
    12:00 +5°C° 0 mm 3 mps 752 mmHg 46%
    13:00 +5°C° 0 mm 3 mps 751 mmHg 41%
    14:00 +7°C° 0 mm 2 mps 751 mmHg 37%
    15:00 +8°C° 0 mm 2 mps 750 mmHg 33%
    16:00 +7°C° 0 mm 2 mps 750 mmHg 36%
    17:00 +7°C° 0 mm 1 mps 750 mmHg 40%
    18:00 +6°C° 0 mm 1 mps 750 mmHg 43%
    19:00 +4°C° 0 mm 2 mps 750 mmHg 45%
    20:00 +4°C° 0 mm 2 mps 749 mmHg 47%
    21:00 +2°C° 0 mm 3 mps 749 mmHg 49%
    22:00 +2°C° 0 mm 3 mps 749 mmHg 48%
    23:00 +2°C° 0 mm 3 mps 749 mmHg 47%
    Show more